Location: Ash Swamp
(41.5170°N, 74.6157°W)
Time: 17:00:00
(UTC+00:00)

Cosmos 1331 Rocket - Pass Details

Date: 14 July 2020
Orbit: 749 x 778 km, 74.0° (Epoch: 05 August)

Event Time Altitude Azimuth Distance (km) Brightness Sun altitude
Rises 04:12:50 0° 341° (NNW) 3,270 8.6 -25.8°
Reaches altitude 10° 04:15:14 10° 343° (NNW) 2,337 7.5 -25.9°
Maximum altitude 04:20:33 76° 70° (ENE) 802 4.0 -26.1°
Enters shadow 04:20:49 74° 100° (E) 809 3.9 -26.1°
